TimeCDT,TemperatureF,Dew PointF,Humidity,Sea Level PressureIn,VisibilityMPH,Wind Direction,Wind SpeedMPH,Gust SpeedMPH,PrecipitationIn,Events,Conditions,WindDirDegrees,DateUTC
2:15 AM,72.7,71.6,96,30.06,7.0,Calm,Calm,-,N/A,,Clear,0,2013-08-12 07:15:00
2:35 AM,72.7,71.6,96,30.06,7.0,Calm,Calm,-,N/A,,Clear,0,2013-08-12 07:35:00
2:55 AM,72.1,70.9,96,30.06,7.0,Calm,Calm,-,N/A,,Clear,0,2013-08-12 07:55:00
3:15 AM,71.8,70.7,96,30.06,5.0,Calm,Calm,-,N/A,,Clear,0,2013-08-12 08:15:00
3:35 AM,71.6,70.2,95,30.06,7.0,Calm,Calm,-,N/A,,Clear,0,2013-08-12 08:35:00
3:55 AM,71.6,70.2,95,30.06,7.0,Calm,Calm,-,N/A,,Clear,0,2013-08-12 08:55:00
4:15 AM,71.6,70.3,96,30.06,4.0,Calm,Calm,-,N/A,,Clear,0,2013-08-12 09:15:00
4:35 AM,71.6,70.3,96,30.06,5.0,Calm,Calm,-,N/A,,Clear,0,2013-08-12 09:35:00
4:55 AM,71.1,69.8,96,30.06,7.0,Calm,Calm,-,N/A,,Clear,0,2013-08-12 09:55:00
5:15 AM,71.1,69.8,96,30.06,7.0,Calm,Calm,-,N/A,,Clear,0,2013-08-12 10:15:00
5:35 AM,71.4,70.2,96,30.06,7.0,Calm,Calm,-,N/A,,Clear,0,2013-08-12 10:35:00
5:55 AM,70.9,69.6,96,30.06,7.0,Calm,Calm,-,N/A,,Scattered Clouds,0,2013-08-12 10:55:00
6:15 AM,71.1,69.8,96,30.07,7.0,Calm,Calm,-,N/A,,Mostly Cloudy,0,2013-08-12 11:15:00
6:35 AM,71.6,70.2,95,30.06,4.0,Calm,Calm,-,N/A,,Overcast,0,2013-08-12 11:35:00
6:55 AM,71.6,70.2,95,30.06,3.0,Calm,Calm,-,N/A,,Overcast,0,2013-08-12 11:55:00
7:15 AM,72.5,71.2,96,30.07,1.8,Calm,Calm,-,N/A,,Overcast,0,2013-08-12 12:15:00
7:35 AM,73.4,72.1,96,30.07,5.0,Calm,Calm,-,N/A,,Overcast,0,2013-08-12 12:35:00
7:55 AM,75.6,73.9,95,30.09,10.0,Calm,Calm,-,N/A,,Overcast,0,2013-08-12 12:55:00
8:15 AM,77.7,75.0,91,30.09,10.0,Calm,Calm,-,N/A,,Overcast,0,2013-08-12 13:15:00
8:35 AM,80.1,76.1,88,30.10,10.0,Calm,Calm,-,N/A,,Mostly Cloudy,0,2013-08-12 13:35:00
8:55 AM,81.3,76.3,85,30.10,10.0,ESE,3.5,-,N/A,,Scattered Clouds,110,2013-08-12 13:55:00
9:15 AM,82.9,76.5,81,30.10,10.0,ESE,3.5,-,N/A,,Clear,110,2013-08-12 14:15:00
9:35 AM,82.9,76.1,80,30.11,10.0,Calm,Calm,-,N/A,,Mostly Cloudy,0,2013-08-12 14:35:00
9:55 AM,85.6,76.3,73,30.10,7.0,Calm,Calm,-,N/A,,Mostly Cloudy,0,2013-08-12 14:55:00
10:15 AM,86.4,75.7,70,30.10,10.0,South,5.8,-,N/A,,Overcast,180,2013-08-12 15:15:00
10:35 AM,79.5,74.8,86,30.10,3.0,Calm,Calm,-,0.17,Rain,Light Rain,0,2013-08-12 15:35:00
10:55 AM,84.7,77.7,79,30.10,10.0,Calm,Calm,-,0.17,Thunderstorm,Mostly Cloudy,0,2013-08-12 15:55:00
11:15 AM,85.6,76.8,75,30.11,7.0,SSW,12.7,18.4,0.03,Rain,Heavy Rain,200,2013-08-12 16:15:00
11:35 AM,76.8,72.5,86,30.11,2.0,WSW,3.5,-,0.18,Rain-Thunderstorm,Thunderstorms and Rain,240,2013-08-12 16:35:00
11:55 AM,77.9,73.8,87,30.11,10.0,Calm,Calm,-,0.21,Rain-Thunderstorm,Light Thunderstorms and Rain,0,2013-08-12 16:55:00
12:15 PM,78.1,74.8,90,30.10,10.0,Calm,Calm,-,0.01,Thunderstorm,Clear,0,2013-08-12 17:15:00
12:35 PM,78.1,73.0,84,30.10,10.0,Calm,Calm,-,0.02,,Mostly Cloudy,0,2013-08-12 17:35:00
12:55 PM,78.4,74.7,88,30.09,10.0,ESE,3.5,-,0.02,,Overcast,110,2013-08-12 17:55:00
1:15 PM,78.3,74.1,87,30.09,10.0,Calm,Calm,-,0.01,,Overcast,0,2013-08-12 18:15:00
1:35 PM,78.6,74.8,88,30.08,10.0,Calm,Calm,-,0.01,,Scattered Clouds,0,2013-08-12 18:35:00
1:55 PM,79.3,74.7,86,30.06,10.0,Calm,Calm,-,0.02,,Clear,0,2013-08-12 18:55:00
2:15 PM,79.7,73.9,82,30.06,10.0,Calm,Calm,-,N/A,,Clear,0,2013-08-12 19:15:00
2:35 PM,80.1,75.0,85,30.06,10.0,Calm,Calm,-,N/A,,Clear,0,2013-08-12 19:35:00
2:55 PM,81.5,75.9,83,30.05,10.0,Calm,Calm,-,N/A,,Clear,0,2013-08-12 19:55:00
3:15 PM,83.5,76.8,80,30.03,10.0,Calm,Calm,-,0.01,,Clear,0,2013-08-12 20:15:00
3:35 PM,85.1,77.2,77,30.03,10.0,Calm,Calm,-,0.01,,Clear,0,2013-08-12 20:35:00
3:55 PM,85.8,76.6,74,30.02,10.0,South,4.6,-,0.01,,Clear,190,2013-08-12 20:55:00
4:15 PM,85.5,75.7,73,30.02,10.0,South,4.6,-,N/A,,Clear,180,2013-08-12 21:15:00
4:35 PM,85.3,75.6,73,30.02,10.0,South,3.5,-,N/A,,Clear,180,2013-08-12 21:35:00
4:55 PM,85.1,75.2,72,30.02,10.0,SSE,4.6,-,N/A,,Clear,160,2013-08-12 21:55:00
5:15 PM,85.1,75.6,73,30.01,10.0,Calm,Calm,-,0.01,,Clear,0,2013-08-12 22:15:00
5:35 PM,86.0,76.1,72,30.01,10.0,South,3.5,-,0.01,,Clear,180,2013-08-12 22:35:00
5:55 PM,86.9,75.7,69,30.00,10.0,SSE,5.8,-,0.01,,Clear,160,2013-08-12 22:55:00
6:15 PM,86.5,75.6,70,29.99,10.0,South,5.8,-,N/A,,Clear,180,2013-08-12 23:15:00
6:35 PM,86.4,75.7,70,29.99,10.0,South,4.6,-,N/A,,Clear,180,2013-08-12 23:35:00
6:55 PM,85.5,75.6,72,29.99,10.0,SSE,4.6,-,N/A,,Clear,150,2013-08-12 23:55:00
7:15 PM,84.4,75.6,75,29.99,10.0,SSE,3.5,-,N/A,,Clear,160,2013-08-13 00:15:00
7:35 PM,82.8,75.4,78,30.01,10.0,Calm,Calm,-,N/A,,Clear,0,2013-08-13 00:35:00
7:55 PM,81.3,75.4,82,30.01,10.0,Calm,Calm,-,N/A,,Clear,0,2013-08-13 00:55:00
8:15 PM,79.2,75.6,89,30.02,10.0,Calm,Calm,-,N/A,,Clear,0,2013-08-13 01:15:00
8:35 PM,78.6,75.4,90,30.02,10.0,Calm,Calm,-,N/A,,Clear,0,2013-08-13 01:35:00
8:55 PM,77.5,75.4,93,30.02,10.0,Calm,Calm,-,N/A,,Clear,0,2013-08-13 01:55:00
9:15 PM,77.5,74.8,91,30.02,10.0,Calm,Calm,-,N/A,,Clear,0,2013-08-13 02:15:00
9:35 PM,77.4,74.7,91,30.02,10.0,Calm,Calm,-,N/A,,Clear,0,2013-08-13 02:35:00
9:55 PM,76.5,74.5,94,30.03,10.0,Calm,Calm,-,N/A,,Clear,0,2013-08-13 02:55:00
10:15 PM,77.0,74.5,92,30.03,10.0,Calm,Calm,-,N/A,,Clear,0,2013-08-13 03:15:00
10:35 PM,77.0,74.7,92,30.02,10.0,Calm,Calm,-,N/A,,Clear,0,2013-08-13 03:35:00
10:55 PM,77.2,74.5,91,30.03,10.0,Calm,Calm,-,N/A,,Clear,0,2013-08-13 03:55:00
11:55 PM,74.8,73.4,95,30.03,5.0,SE,3.5,-,N/A,,Clear,140,2013-08-13 04:55:00